COSMOS 2251 DEB, 35606

Orbit data source: Space-Track

COSMOS 2251 DEB, 35606 is space debris in LEO originally from a launch on Wed, 16 Jun 1993 UTC launched from the Plesetsk Missile And Space Complex (PKMTR). The debris from Iridium 33, an American commercial communications satellite, has been tracked extensively since its accidental collision with the defunct Russian satellite Cosmos 2251 in 2009. This event, occurring at high speed in low Earth orbit (LEO), generated thousands of pieces of space debris, significantly increasing the risk of further collisions. The Iridium 33 debris cloud has impacted space traffic management and orbital debris mitigation strategies, making it a subject of ongoing study in space situational awareness.

Loading next visibility...
Identifier
35606, 1993-036AMZ
Orbit
LEO
Country
Flag of CISCIS
Related business
Manufacturer
Unknown
Mission
Spacecraft
Bus & Motor
Unknown
Mass
Unknown
Launch date (UTC)
1993-06-16 (33 years ago)
Launch vehicle
Unknown
Launch site
Plesetsk Missile And Space Complex (PKMTR)
Object type
Payload
Rocket body
Debris
Shape & HBR
Unknown shape, 0.1 m
Radar Cross Section
Medium (>0.1 m² and <1 m²)

Expand to show TLE details & history
Last TLE update: 15 hours ago

TLE from 15 hours ago
0 COSMOS 2251 DEB
1 35606U 93036AMZ 26208.11847400  .00001383  00000-0  13732-2 0  9997
2 35606  73.8110   9.9060 0453219 179.3803 180.7963 13.41495033640750
Epoch: 2026-07-27T02:50Z
TLE epoch observation values (Epoch: 2026-07-27T02:50:36.153Z)
Latitude
0.00001°
Longitude
22.44873°
Altitude
1,445.318 km
Speed
6.976 km/s
True Right ascension
00h 39m 37s
True Declination
0° 00' 00"
Sunlit
Object was in daylight at epoch
Visualization orbit readout
Latitude
Unknown
Longitude
Unknown
Altitude
Unknown
Speed
Unknown
Apparent Right ascension
Unknown
Apparent Declination
Unknown
Sunlit
N/A
Visualization observer readout
Local Sidereal Time
07:37:33
Azimuth
Unknown
Elevation
Unknown
Doppler factor
Unknown
Orbital elements
Apogee altitude
1,440.446 km
Perigee altitude
762.467 km
Semi-major axis
7,479.594 km
Eccentricity
0.04532
Inclination
73.811°
RAAN
9.906°
Arg. of periapsis
179.3803°
True anomaly
180.728°
Mean anomaly
180.7963°
Eccentric anomaly
180.76178°
Mean motion
3.35526 °/min
Orbital period
107.29 mins
BSTAR
0.0013732
Loading maneuver chart data...
Computing Atmospheric mass density...

Documentation

Showing up to 5 results
|